2015-049G (40905 NORAD) Tracking and Keplerian Element Data

This shows tracking and keplerian element data for the satellite.

Feedback or suggestion? Click here.




ElementValue
Catalog40905
Name2015-049G
Epoch Orbit28091
Epoch Day293.87606037
Epoch Year2020
RAAN290.2318
Inclination97.4912
Eccentricity0.001465
Argument of Perigee315.1291
Mean Anonmoly128.6981
Mean Motion15.14654237
Decay Rate3.06E-06
L11 40905U 15049G 20293.87606037 .00000306 00000-0 20089-4 0 9992
L22 40905 97.4912 290.2318 0014650 315.1291 128.6981 15.14654237280918

Live tracking and technical data element details for 2015-049G (NORAD 40905). 2015-049G can be tracked NOW for your location showing map with azimuth and elevation plus other details from your city location.

Track the satellite on the map from your city or location and see movement details for azimuth, elevation, latitude, longitude, range, height, and movement on the map or in text.







IsCatalogInMostPopularTable: catalog: 40905, numindb: 431
Update: records affected: 1



GetName: 40905 2015-049G

Hit Count: updated at: Tue, 20 Oct 2020 18:03:06 GMT